Regional Weather Roundup
Issued by NWS

Home | Current Version | Previous Version | Text Only | Print | Product List | Glossary Off
Versions: 1 2 3 4 5 6 7 8 9 10 11 12 13 14 15 16 17 18 19 20 21 22 23 24 25 26 27 28 29 30 31 32 33 34 35 36 37 38 39 40 41 42 43 44 45 46 47 48 49 50

919
ASUS43 KIND 230109
RWRIN

WEATHER ROUNDUP FOR INDIANA
NATIONAL WEATHER SERVICE INDIANAPOLIS IN
900 PM EDT THU JUN 22 2017

NOTE: "FAIR" INDICATES FEW OR NO CLOUDS BELOW 12,000 FEET WITH NO
SIGNIFICANT WEATHER AND/OR OBSTRUCTIONS TO VISIBILITY.

* - STATION DOES NOT REPORT WEATHER SUCH AS PRECIPITATION OR FOG.

+ - STATION NOT QUALITY CONTROLLED BY THE NATIONAL WEATHER SERVICE.
    USE DATA WITH CAUTION...ESPECIALLY DEWPOINT AND RELATIVE
    HUMIDITY OBSERVATIONS.

INZ001>003-010>013-019-020-230200-
NORTHWEST INDIANA

CITY           SKY/WX    TMP DP  RH WIND       PRES   REMARKS
GARY /AIRPORT/ PTCLDY    81  70  69 S14       29.74S
KNOX *+        PTCLDY    79  59  50 S12       29.77F
LA PORTE +     CLOUDY    79  69  71 S13G20    29.77F
MICHIGAN CITY+ PTCLDY    77  68  73 S13G18    29.75F
MONTICELLO +   CLOUDY    76  68  77 S14G22    29.80S
RENSSELAER +   CLOUDY    77  68  73 S21G26    29.79S
VALPARAISO     MOCLDY    80  71  74 S12       29.77F

$$

LMZ046-743>745-230200-
SOUTHERN LAKE MICHIGAN

STATION/POSITION TIME  TEMP    WIND        PRES    WAVE
                       AIR SEA DIR/SP/G            HT
                 (UTC) (F)     (DEG/KT/KT) (MB)    (FT)
BURNS HARBOR     0040   80     190/ 21/ 28 1007.1F
MICHIGAN CITY    0040   79     170/ 15/ 19   N/A
5NW MICH CITY    0100   76 68  190/ 14/ 19   N/A     2

$$

INZ004-005-014>016-021>024-230200-
NORTH CENTRAL INDIANA

CITY           SKY/WX    TMP DP  RH WIND       PRES   REMARKS
ELKHART        PTCLDY    79  70  73 S12       29.78F
GOSHEN         CLOUDY    78  67  68 S16       29.80S
LOGANSPORT +   MOCLDY    75  66  73 S20       29.83S
PERU/GRISSOM   MOCLDY    77  69  77 S14       29.80F
ROCHESTER +    PTCLDY    79  70  73 S12G20    29.81F
SOUTH BEND     MOCLDY    77  71  82 S12       29.77F
WARSAW +       CLOUDY    77  68  73 S6        29.81F

$$

INZ006>009-017-018-025>027-230200-
NORTHEAST INDIANA

CITY           SKY/WX    TMP DP  RH WIND       PRES   REMARKS
AUBURN +       PTCLDY    79  64  61 S9        29.83S
FORT WAYNE     PTCLDY    78  66  66 S18G29    29.83R
HUNTINGTON +   PTCLDY    76  68  75 SW12G20   29.83S
KENDALLVILLE + LGT RAIN  78  68  71 SW17G26   29.82R

$$

INZ028-029-035-036-043>045-051>053-230200-
WEST CENTRAL INDIANA

CITY           SKY/WX    TMP DP  RH WIND       PRES   REMARKS
CRAWFORDSVL +  CLOUDY    73  69  88 S13       29.83S
GREENCASTLE +  CLOUDY    72  68  88 S10       29.85S
LAFAYETTE      CLOUDY    75  69  81 SW5       29.81S
TERRE HAUTE    LGT RAIN  74  70  87 S12       29.82F

$$

INZ030>032-037>040-046>048-054>057-064-065-230200-
CENTRAL INDIANA

CITY           SKY/WX    TMP DP  RH WIND       PRES   REMARKS
CP ATTERBURY + DRIZZLE   72  68  88 S8        29.87F
COLUMBUS       CLOUDY    72  68  88 S10       29.87F
FRANKFORT +    CLOUDY    76  71  83 SW3       29.85S
INDIANAPOLIS   LGT RAIN  74  68  81 S18       29.84F
-EAGLE CREEK   CLOUDY    75  67  76 S13G22    29.84F
KOKOMO +       CLOUDY    76  68  76 SW15      29.84S
MARION +       MOCLDY    75  66  73 S16       29.85S
MT COMFORT *+  CLOUDY    73  68  83 S10       29.86F
SHELBYVILLE    CLOUDY    74  68  81 S15G21    29.86S
ZIONSVILLE +   CLOUDY    74  67  79 S16G22    29.85S

$$

INZ033-034-041-042-049-050-058-059-230200-
EAST CENTRAL INDIANA

CITY           SKY/WX    TMP DP  RH WIND       PRES   REMARKS
MUNCIE         MOCLDY    77  66  68 S14G24    29.85F
RICHMOND +     CLOUDY    72  68  88 S14       29.91S

$$

INZ060-061-067>069-081>083-085>088-230200-
SOUTHWEST INDIANA

CITY           SKY/WX    TMP DP  RH WIND       PRES   REMARKS
EVANSVILLE     CLOUDY    75  72  90 SE6       29.82S
HUNTINGBURG *+ CLOUDY    73  72  96 SE7       29.85F
WASHINGTON +   LGT RAIN  72  70  94 S9        29.83F

$$

INZ062-063-066-070>080-084-089>092-230200-
SOUTH CENTRAL AND SOUTHEAST INDIANA

CITY           SKY/WX    TMP DP  RH WIND       PRES   REMARKS
BEDFORD +      CLOUDY    72  68  88 SE9       29.86
BLOOMINGTON    CLOUDY    72  68  87 S7        29.85F
MADISON *+     CLOUDY    72  68  88 SE9       29.91F
NORTH VERNON + CLOUDY    70  68  94 S14       29.88F
SEYMOUR +      RAIN      73  72  94 S9        29.87F

$$





USA.gov is the U.S. government's official web portal to all federal, state and local government web resources and services.